Time,TemperatureF,DewpointF,PressureIn,WindDirection,WindDirectionDegrees,WindSpeedMPH,WindSpeedGustMPH,Humidity,HourlyPrecipIn,Conditions,Clouds,dailyrainin,SoftwareType,DateUTC
2013-05-10 00:00:00,58.6,58.6,29.92,SW,217,0.0,0.0,100,0.01,,OVC003,0.29,VWS V14.01,2013-05-10 04:00:00,
2013-05-10 00:01:00,58.6,58.6,29.92,SW,217,0.0,0.0,100,0.01,,OVC002,0.00,VWS V14.01,2013-05-10 04:01:00,
2013-05-10 00:06:00,58.4,58.4,29.92,SW,217,0.0,0.0,100,0.01,,OVC002,0.00,VWS V14.01,2013-05-10 04:06:00,
2013-05-10 00:11:00,58.4,58.4,29.92,SW,217,0.0,0.0,100,0.01,,OVC002,0.00,VWS V14.01,2013-05-10 04:11:00,
2013-05-10 00:16:00,58.4,58.4,29.92,SW,217,0.0,0.0,100,0.00,,OVC002,0.00,VWS V14.01,2013-05-10 04:16:00,
2013-05-10 00:21:00,58.4,58.4,29.92,SW,216,0.0,0.0,100,0.00,,OVC002,0.00,VWS V14.01,2013-05-10 04:21:00,
2013-05-10 00:26:00,58.3,58.3,29.92,SW,217,0.0,0.0,100,0.00,,OVC002,0.00,VWS V14.01,2013-05-10 04:26:00,
2013-05-10 00:31:00,58.3,58.3,29.92,SW,217,0.0,0.0,100,0.00,,OVC002,0.00,VWS V14.01,2013-05-10 04:31:00,
2013-05-10 00:36:00,58.3,58.3,29.92,SW,217,0.0,0.0,100,0.00,,OVC002,0.00,VWS V14.01,2013-05-10 04:36:00,
2013-05-10 00:41:00,58.3,58.3,29.92,SW,217,0.0,0.0,100,0.00,,OVC002,0.00,VWS V14.01,2013-05-10 04:41:00,
2013-05-10 00:46:00,58.4,58.4,29.92,SW,217,0.0,0.0,100,0.00,,OVC002,0.00,VWS V14.01,2013-05-10 04:46:00,
2013-05-10 00:51:00,58.6,58.6,29.92,SW,217,0.0,0.0,100,0.00,,OVC002,0.00,VWS V14.01,2013-05-10 04:51:00,
2013-05-10 00:56:00,58.7,58.7,29.92,SW,216,0.0,0.0,100,0.00,,OVC002,0.00,VWS V14.01,2013-05-10 04:56:00,
2013-05-10 01:01:00,58.7,58.7,29.93,SW,217,0.0,0.0,100,0.00,,OVC003,0.00,VWS V14.01,2013-05-10 05:01:00,
2013-05-10 01:06:00,58.9,58.9,29.93,SW,217,0.0,0.0,100,0.00,,OVC003,0.00,VWS V14.01,2013-05-10 05:06:00,
2013-05-10 01:11:00,58.9,58.9,29.93,SW,217,0.0,0.0,100,0.00,,OVC003,0.00,VWS V14.01,2013-05-10 05:11:00,
2013-05-10 01:16:00,58.9,58.9,29.92,SW,217,0.0,0.0,100,0.00,,OVC003,0.00,VWS V14.01,2013-05-10 05:16:00,
2013-05-10 01:21:00,58.9,58.9,29.92,SW,217,0.0,0.0,100,0.00,,OVC003,0.00,VWS V14.01,2013-05-10 05:21:00,
2013-05-10 01:26:00,58.9,58.9,29.92,SW,217,0.0,0.0,100,0.00,,OVC003,0.00,VWS V14.01,2013-05-10 05:26:00,
2013-05-10 01:31:00,58.9,58.9,29.92,SW,217,0.0,0.0,100,0.00,,OVC003,0.00,VWS V14.01,2013-05-10 05:31:00,
2013-05-10 01:36:00,58.9,58.9,29.92,SW,217,0.0,0.0,100,0.00,,OVC003,0.00,VWS V14.01,2013-05-10 05:36:00,
2013-05-10 01:41:00,58.9,58.9,29.92,SW,217,0.0,0.0,100,0.00,,OVC003,0.00,VWS V14.01,2013-05-10 05:41:00,
2013-05-10 01:46:00,58.9,58.9,29.92,SW,217,0.0,0.0,100,0.00,,OVC003,0.00,VWS V14.01,2013-05-10 05:46:00,
2013-05-10 01:51:00,59.0,59.0,29.92,SW,216,2.0,2.0,100,0.00,,OVC003,0.00,VWS V14.01,2013-05-10 05:51:00,
2013-05-10 01:56:00,58.9,58.9,29.92,SW,217,0.0,0.0,100,0.00,,OVC003,0.00,VWS V14.01,2013-05-10 05:56:00,
2013-05-10 02:01:00,58.9,58.9,29.92,SW,217,2.0,2.0,100,0.00,,BKN095,0.00,VWS V14.01,2013-05-10 06:01:00,
2013-05-10 02:06:00,58.7,58.7,29.92,SW,217,0.0,0.0,100,0.00,,BKN095,0.00,VWS V14.01,2013-05-10 06:06:00,
2013-05-10 02:11:00,58.6,58.6,29.92,SW,217,1.0,1.0,100,0.00,,BKN095,0.00,VWS V14.01,2013-05-10 06:11:00,
2013-05-10 02:16:00,58.6,58.6,29.92,SW,217,0.0,0.0,100,0.00,,BKN095,0.00,VWS V14.01,2013-05-10 06:16:00,
2013-05-10 02:21:00,58.4,58.4,29.92,SW,217,0.0,0.0,100,0.00,,BKN095,0.00,VWS V14.01,2013-05-10 06:21:00,
2013-05-10 02:26:00,58.3,58.3,29.92,SW,217,0.0,0.0,100,0.00,,BKN095,0.00,VWS V14.01,2013-05-10 06:26:00,
2013-05-10 02:31:00,58.1,58.1,29.92,SW,217,0.0,0.0,100,0.00,,BKN095,0.00,VWS V14.01,2013-05-10 06:31:00,
2013-05-10 02:36:00,58.0,58.0,29.92,SW,217,0.0,0.0,100,0.00,,BKN095,0.00,VWS V14.01,2013-05-10 06:36:00,
2013-05-10 02:41:00,57.8,57.8,29.92,SW,217,0.0,0.0,100,0.00,,BKN095,0.00,VWS V14.01,2013-05-10 06:41:00,
2013-05-10 02:46:00,57.6,57.6,29.92,SW,217,0.0,1.0,100,0.00,,BKN095,0.00,VWS V14.01,2013-05-10 06:46:00,
2013-05-10 02:51:00,57.5,57.5,29.92,SW,217,0.0,0.0,100,0.00,,BKN095,0.00,VWS V14.01,2013-05-10 06:51:00,
2013-05-10 02:56:00,57.3,57.3,29.92,SW,217,0.0,0.0,100,0.00,,BKN095,0.00,VWS V14.01,2013-05-10 06:56:00,
2013-05-10 03:01:00,57.2,57.2,29.93,SW,217,0.0,0.0,100,0.00,,BKN090,0.00,VWS V14.01,2013-05-10 07:01:00,
2013-05-10 03:06:00,57.0,57.0,29.93,SW,217,0.0,0.0,100,0.00,,BKN090,0.00,VWS V14.01,2013-05-10 07:06:00,
2013-05-10 03:11:00,57.0,57.0,29.93,SW,217,0.0,0.0,100,0.00,,BKN090,0.00,VWS V14.01,2013-05-10 07:11:00,
2013-05-10 03:16:00,56.9,56.9,29.93,SW,217,0.0,0.0,100,0.00,,BKN090,0.00,VWS V14.01,2013-05-10 07:16:00,
2013-05-10 03:21:00,56.7,56.7,29.93,SW,217,0.0,0.0,100,0.00,,BKN090,0.00,VWS V14.01,2013-05-10 07:21:00,
2013-05-10 03:26:00,56.6,56.6,29.93,SW,217,0.0,0.0,100,0.00,,BKN090,0.00,VWS V14.01,2013-05-10 07:26:00,
2013-05-10 03:31:00,56.3,56.3,29.93,SW,217,0.0,0.0,100,0.00,,BKN090,0.00,VWS V14.01,2013-05-10 07:31:00,
2013-05-10 03:36:00,56.2,56.2,29.93,SW,217,0.0,0.0,100,0.00,,BKN090,0.00,VWS V14.01,2013-05-10 07:36:00,
2013-05-10 03:41:00,56.2,56.2,29.93,SW,217,0.0,0.0,100,0.00,,BKN090,0.00,VWS V14.01,2013-05-10 07:41:00,
2013-05-10 03:46:00,56.2,56.2,29.93,SW,217,0.0,0.0,100,0.00,,BKN090,0.00,VWS V14.01,2013-05-10 07:46:00,
2013-05-10 03:51:00,56.2,56.2,29.93,SW,217,0.0,0.0,100,0.00,,BKN090,0.00,VWS V14.01,2013-05-10 07:51:00,
2013-05-10 03:56:00,56.2,56.2,29.93,SW,217,0.0,0.0,100,0.00,,BKN090,0.00,VWS V14.01,2013-05-10 07:56:00,
2013-05-10 04:01:00,56.3,56.3,29.93,SW,217,0.0,0.0,100,0.00,,OVC002,0.00,VWS V14.01,2013-05-10 08:01:00,
2013-05-10 04:06:00,56.3,56.3,29.93,SW,217,0.0,0.0,100,0.00,,OVC002,0.00,VWS V14.01,2013-05-10 08:06:00,
2013-05-10 04:11:00,56.3,56.3,29.93,SW,217,0.0,0.0,100,0.00,,OVC002,0.00,VWS V14.01,2013-05-10 08:11:00,
2013-05-10 04:16:00,56.3,56.3,29.94,SW,216,0.0,0.0,100,0.00,,OVC002,0.00,VWS V14.01,2013-05-10 08:16:00,
2013-05-10 04:21:00,56.2,56.2,29.94,SW,217,0.0,0.0,100,0.00,,OVC002,0.00,VWS V14.01,2013-05-10 08:21:00,
2013-05-10 04:26:00,56.0,56.0,29.94,SW,217,0.0,0.0,100,0.00,,OVC002,0.00,VWS V14.01,2013-05-10 08:26:00,
2013-05-10 04:31:00,55.9,55.9,29.94,SW,217,0.0,0.0,100,0.00,,OVC002,0.00,VWS V14.01,2013-05-10 08:31:00,
2013-05-10 04:36:00,55.7,55.7,29.94,SW,217,0.0,0.0,100,0.00,,OVC002,0.00,VWS V14.01,2013-05-10 08:36:00,
2013-05-10 04:41:00,55.6,55.6,29.94,SW,217,0.0,0.0,100,0.00,,OVC002,0.00,VWS V14.01,2013-05-10 08:41:00,
2013-05-10 04:46:00,55.4,55.4,29.94,SW,217,0.0,0.0,100,0.00,,OVC002,0.00,VWS V14.01,2013-05-10 08:46:00,
2013-05-10 04:51:00,55.3,55.3,29.94,SW,217,0.0,0.0,100,0.00,,OVC002,0.00,VWS V14.01,2013-05-10 08:51:00,
2013-05-10 04:56:00,55.1,55.1,29.94,SW,217,0.0,0.0,100,0.00,,OVC002,0.00,VWS V14.01,2013-05-10 08:56:00,
2013-05-10 05:01:00,55.0,55.0,29.94,SW,217,0.0,0.0,100,0.00,,OVC002,0.00,VWS V14.01,2013-05-10 09:01:00,
2013-05-10 05:06:00,54.7,54.7,29.94,SW,217,0.0,0.0,100,0.00,,OVC002,0.00,VWS V14.01,2013-05-10 09:06:00,
2013-05-10 05:11:00,54.5,54.5,29.94,SW,217,0.0,0.0,100,0.00,,OVC002,0.00,VWS V14.01,2013-05-10 09:11:00,
2013-05-10 05:16:00,54.4,54.4,29.94,SW,217,0.0,0.0,100,0.00,,OVC002,0.00,VWS V14.01,2013-05-10 09:16:00,
2013-05-10 05:21:00,54.2,54.2,29.94,SW,217,0.0,0.0,100,0.00,,OVC002,0.00,VWS V14.01,2013-05-10 09:21:00,
2013-05-10 05:26:00,53.9,53.9,29.94,SW,217,0.0,0.0,100,0.00,,OVC002,0.00,VWS V14.01,2013-05-10 09:26:00,
2013-05-10 05:31:00,53.9,53.9,29.95,SW,217,0.0,0.0,100,0.00,,OVC002,0.00,VWS V14.01,2013-05-10 09:31:00,
2013-05-10 05:36:00,53.8,53.8,29.95,SW,217,0.0,0.0,100,0.00,,OVC002,0.00,VWS V14.01,2013-05-10 09:36:00,
2013-05-10 05:41:00,53.9,53.9,29.95,SW,217,0.0,0.0,100,0.00,,OVC002,0.00,VWS V14.01,2013-05-10 09:41:00,
2013-05-10 05:46:00,53.9,53.9,29.95,SW,217,0.0,0.0,100,0.00,,OVC002,0.00,VWS V14.01,2013-05-10 09:46:00,
2013-05-10 05:51:00,53.8,53.8,29.95,SW,217,0.0,0.0,100,0.00,,OVC002,0.00,VWS V14.01,2013-05-10 09:51:00,
2013-05-10 05:56:00,53.8,53.8,29.95,SW,217,0.0,0.0,100,0.00,,OVC002,0.00,VWS V14.01,2013-05-10 09:56:00,
2013-05-10 06:01:00,53.6,53.6,29.96,SW,217,0.0,0.0,100,0.00,,OVC002,0.00,VWS V14.01,2013-05-10 10:01:00,
2013-05-10 06:06:00,53.8,53.8,29.96,SW,217,0.0,0.0,100,0.00,,OVC002,0.00,VWS V14.01,2013-05-10 10:06:00,
2013-05-10 06:11:00,53.9,53.9,29.96,SW,217,0.0,0.0,100,0.00,,OVC002,0.00,VWS V14.01,2013-05-10 10:11:00,
2013-05-10 06:16:00,54.1,54.1,29.96,SW,217,0.0,0.0,100,0.00,,OVC002,0.00,VWS V14.01,2013-05-10 10:16:00,
2013-05-10 06:21:00,54.5,54.5,29.96,SW,216,0.0,0.0,100,0.00,,OVC002,0.00,VWS V14.01,2013-05-10 10:21:00,
2013-05-10 06:26:00,55.7,55.7,29.96,SW,219,0.0,0.0,100,0.00,,OVC002,0.00,VWS V14.01,2013-05-10 10:26:00,
2013-05-10 06:31:00,56.5,56.5,29.96,SW,217,0.0,0.0,100,0.00,,OVC002,0.00,VWS V14.01,2013-05-10 10:31:00,
2013-05-10 06:36:00,57.2,57.2,29.96,SW,217,0.0,0.0,100,0.00,,OVC002,0.00,VWS V14.01,2013-05-10 10:36:00,
2013-05-10 06:41:00,58.0,58.0,29.96,SW,217,0.0,0.0,100,0.00,,OVC002,0.00,VWS V14.01,2013-05-10 10:41:00,
2013-05-10 06:46:00,58.4,58.4,29.96,SW,217,0.0,0.0,100,0.00,,OVC002,0.00,VWS V14.01,2013-05-10 10:46:00,
2013-05-10 06:51:00,58.7,58.7,29.96,SW,217,0.0,0.0,100,0.00,,OVC002,0.00,VWS V14.01,2013-05-10 10:51:00,
2013-05-10 06:56:00,59.3,59.3,29.96,SW,216,0.0,0.0,100,0.00,,OVC002,0.00,VWS V14.01,2013-05-10 10:56:00,
2013-05-10 07:01:00,59.8,59.8,29.97,SW,217,0.0,0.0,100,0.00,,OVC002,0.00,VWS V14.01,2013-05-10 11:01:00,
2013-05-10 07:06:00,59.9,59.9,29.97,SW,217,0.0,0.0,100,0.00,,OVC002,0.00,VWS V14.01,2013-05-10 11:06:00,
2013-05-10 07:11:00,60.7,60.7,29.97,SW,217,0.0,0.0,100,0.00,,OVC002,0.00,VWS V14.01,2013-05-10 11:11:00,
2013-05-10 07:16:00,61.5,61.5,29.97,SW,217,0.0,0.0,100,0.00,,OVC002,0.00,VWS V14.01,2013-05-10 11:16:00,
2013-05-10 07:21:00,62.0,62.0,29.97,SW,217,0.0,0.0,100,0.00,,OVC002,0.00,VWS V14.01,2013-05-10 11:21:00,
2013-05-10 07:26:00,62.4,62.4,29.97,SW,217,0.0,0.0,100,0.00,,OVC002,0.00,VWS V14.01,2013-05-10 11:26:00,
2013-05-10 07:31:00,63.2,63.2,29.97,SW,217,0.0,0.0,100,0.00,,OVC002,0.00,VWS V14.01,2013-05-10 11:31:00,
2013-05-10 07:36:00,63.7,63.7,29.97,SW,217,0.0,0.0,100,0.00,,OVC002,0.00,VWS V14.01,2013-05-10 11:36:00,
2013-05-10 07:41:00,64.0,62.8,29.97,SW,217,0.0,0.0,96,0.00,,OVC002,0.00,VWS V14.01,2013-05-10 11:41:00,
2013-05-10 07:46:00,64.3,62.5,29.97,SW,217,0.0,0.0,94,0.00,,OVC002,0.00,VWS V14.01,2013-05-10 11:46:00,
2013-05-10 07:51:00,64.8,61.5,29.97,SW,217,0.0,0.0,89,0.00,,OVC002,0.00,VWS V14.01,2013-05-10 11:51:00,
2013-05-10 07:56:00,65.0,60.7,29.97,SW,217,0.0,0.0,86,0.00,,OVC002,0.00,VWS V14.01,2013-05-10 11:56:00,
2013-05-10 08:01:00,65.0,60.7,29.98,SW,217,0.0,2.0,86,0.00,,OVC002,0.00,VWS V14.01,2013-05-10 12:01:00,
2013-05-10 08:06:00,65.3,61.7,29.98,SW,217,0.0,0.0,88,0.00,,OVC002,0.00,VWS V14.01,2013-05-10 12:06:00,
2013-05-10 08:11:00,65.3,61.3,29.98,SW,222,0.0,0.0,87,0.00,,OVC002,0.00,VWS V14.01,2013-05-10 12:11:00,
2013-05-10 08:16:00,65.5,61.2,29.98,SW,222,0.0,0.0,86,0.00,,OVC002,0.00,VWS V14.01,2013-05-10 12:16:00,
2013-05-10 08:21:00,66.0,61.0,29.98,SW,222,0.0,0.0,84,0.00,,OVC002,0.00,VWS V14.01,2013-05-10 12:21:00,
2013-05-10 08:26:00,66.3,61.7,29.98,SW,222,0.0,0.0,85,0.00,,OVC002,0.00,VWS V14.01,2013-05-10 12:26:00,
2013-05-10 08:31:00,66.4,61.4,29.98,SW,222,0.0,0.0,84,0.00,,OVC002,0.00,VWS V14.01,2013-05-10 12:31:00,
2013-05-10 08:36:00,66.6,60.6,29.98,SW,222,0.0,0.0,81,0.00,,OVC002,0.00,VWS V14.01,2013-05-10 12:36:00,
2013-05-10 08:41:00,66.6,60.6,29.98,SW,222,0.0,1.0,81,0.00,,OVC002,0.00,VWS V14.01,2013-05-10 12:41:00,
2013-05-10 08:46:00,66.8,60.8,29.98,SW,233,0.0,0.0,81,0.00,,OVC002,0.00,VWS V14.01,2013-05-10 12:46:00,
2013-05-10 08:51:00,66.9,61.2,29.98,SW,233,0.0,5.0,82,0.00,,OVC002,0.00,VWS V14.01,2013-05-10 12:51:00,
2013-05-10 08:56:00,67.4,61.4,29.98,SW,233,0.0,0.0,81,0.00,,OVC002,0.00,VWS V14.01,2013-05-10 12:56:00,
2013-05-10 09:01:00,67.9,61.2,29.97,SW,233,0.0,0.0,79,0.00,,OVC002,0.00,VWS V14.01,2013-05-10 13:01:00,
2013-05-10 09:06:00,68.4,62.0,29.97,SW,233,0.0,0.0,80,0.00,,OVC002,0.00,VWS V14.01,2013-05-10 13:06:00,
2013-05-10 09:11:00,69.1,61.2,29.97,SW,233,0.0,0.0,76,0.00,,OVC002,0.00,VWS V14.01,2013-05-10 13:11:00,
2013-05-10 09:16:00,69.8,61.5,29.97,SW,233,2.0,2.0,75,0.00,,OVC002,0.00,VWS V14.01,2013-05-10 13:16:00,
2013-05-10 09:21:00,70.1,61.0,29.97,SW,234,0.0,0.0,73,0.00,,OVC002,0.00,VWS V14.01,2013-05-10 13:21:00,
2013-05-10 09:26:00,70.6,60.3,29.97,SW,233,0.0,0.0,70,0.00,,OVC002,0.00,VWS V14.01,2013-05-10 13:26:00,
2013-05-10 09:31:00,71.1,60.8,29.98,WSW,241,1.0,2.0,70,0.00,,OVC002,0.00,VWS V14.01,2013-05-10 13:31:00,
2013-05-10 09:36:00,70.6,59.1,29.98,WSW,241,1.0,2.0,67,0.00,,OVC002,0.00,VWS V14.01,2013-05-10 13:36:00,
2013-05-10 09:41:00,70.8,58.9,29.98,WSW,241,0.0,3.0,66,0.00,,OVC002,0.00,VWS V14.01,2013-05-10 13:41:00,
2013-05-10 09:46:00,71.3,61.4,29.97,WSW,241,0.0,0.0,71,0.00,,OVC002,0.00,VWS V14.01,2013-05-10 13:46:00,
2013-05-10 09:51:00,72.0,60.0,29.97,WSW,241,0.0,0.0,66,0.00,,OVC002,0.00,VWS V14.01,2013-05-10 13:51:00,
2013-05-10 09:56:00,72.0,58.3,29.97,WSW,241,2.0,2.0,62,0.00,,OVC002,0.00,VWS V14.01,2013-05-10 13:56:00,
2013-05-10 10:01:00,72.1,57.9,29.97,WSW,243,0.0,0.0,61,0.00,,OVC002,0.00,VWS V14.01,2013-05-10 14:01:00,
2013-05-10 10:06:00,72.8,58.6,29.97,WSW,243,2.0,2.0,61,0.00,,OVC002,0.00,VWS V14.01,2013-05-10 14:06:00,
2013-05-10 10:11:00,73.3,59.0,29.97,WSW,241,0.0,0.0,61,0.00,,OVC002,0.00,VWS V14.01,2013-05-10 14:11:00,
2013-05-10 10:16:00,73.7,57.5,29.97,WSW,241,0.0,0.0,57,0.00,,OVC002,0.00,VWS V14.01,2013-05-10 14:16:00,
2013-05-10 10:21:00,73.3,56.7,29.97,WSW,241,2.0,3.0,56,0.00,,OVC002,0.00,VWS V14.01,2013-05-10 14:21:00,
2013-05-10 10:26:00,73.7,58.0,29.97,WSW,241,2.0,2.0,58,0.00,,OVC002,0.00,VWS V14.01,2013-05-10 14:26:00,
2013-05-10 10:31:00,74.2,57.5,29.97,WSW,241,0.0,0.0,56,0.00,,OVC002,0.00,VWS V14.01,2013-05-10 14:31:00,
2013-05-10 10:36:00,74.9,57.7,29.97,WSW,241,0.0,0.0,55,0.00,,OVC002,0.00,VWS V14.01,2013-05-10 14:36:00,
2013-05-10 10:41:00,75.3,56.5,29.97,WSW,256,0.0,2.0,52,0.00,,OVC002,0.00,VWS V14.01,2013-05-10 14:41:00,
2013-05-10 10:46:00,75.8,58.5,29.97,WSW,256,0.0,0.0,55,0.00,,OVC002,0.00,VWS V14.01,2013-05-10 14:46:00,
2013-05-10 10:51:00,76.0,58.7,29.97,WSW,256,0.0,0.0,55,0.00,,OVC002,0.00,VWS V14.01,2013-05-10 14:51:00,
2013-05-10 10:56:00,76.0,59.2,29.97,WSW,243,1.0,1.0,56,0.00,,OVC002,0.00,VWS V14.01,2013-05-10 14:56:00,
2013-05-10 11:00:00,76.0,58.7,29.97,WSW,251,0.0,2.0,55,0.00,,OVC002,0.00,VWS V14.01,2013-05-10 15:00:00,
2013-05-10 11:05:00,76.3,58.5,29.97,WSW,251,2.0,2.0,54,0.00,,OVC002,0.00,VWS V14.01,2013-05-10 15:05:00,
2013-05-10 11:10:00,76.7,58.3,29.97,WSW,248,0.0,0.0,53,0.00,,OVC002,0.00,VWS V14.01,2013-05-10 15:10:00,
2013-05-10 11:15:00,77.0,59.6,29.97,WSW,250,2.0,3.0,55,0.00,,OVC002,0.00,VWS V14.01,2013-05-10 15:15:00,
2013-05-10 11:20:00,77.4,59.5,29.97,WSW,250,0.0,0.0,54,0.00,,OVC002,0.00,VWS V14.01,2013-05-10 15:20:00,
2013-05-10 11:25:00,77.0,56.4,29.97,WSW,243,0.0,0.0,49,0.00,,OVC002,0.00,VWS V14.01,2013-05-10 15:25:00,
2013-05-10 11:30:00,77.6,58.1,29.97,WSW,243,3.0,3.0,51,0.00,,OVC002,0.00,VWS V14.01,2013-05-10 15:30:00,
2013-05-10 11:35:00,78.1,56.2,29.97,WSW,244,0.0,0.0,47,0.00,,OVC002,0.00,VWS V14.01,2013-05-10 15:35:00,
2013-05-10 11:40:00,78.1,57.4,29.97,WSW,244,0.0,0.0,49,0.00,,OVC002,0.00,VWS V14.01,2013-05-10 15:40:00,
2013-05-10 11:45:00,77.7,57.6,29.97,WSW,244,6.0,6.0,50,0.00,,OVC002,0.00,VWS V14.01,2013-05-10 15:45:00,
2013-05-10 11:50:00,78.1,59.6,29.97,WSW,244,0.0,0.0,53,0.00,,OVC002,0.00,VWS V14.01,2013-05-10 15:50:00,
2013-05-10 11:55:00,78.1,55.7,29.97,WSW,248,3.0,3.0,46,0.00,,OVC002,0.00,VWS V14.01,2013-05-10 15:55:00,
2013-05-10 12:00:00,78.5,58.9,29.96,WSW,254,3.0,3.0,51,0.00,,OVC002,0.00,VWS V14.01,2013-05-10 16:00:00,
2013-05-10 12:05:00,78.3,57.0,29.96,WNW,285,2.0,3.0,48,0.00,,OVC002,0.00,VWS V14.01,2013-05-10 16:05:00,
2013-05-10 12:10:00,77.9,56.1,29.96,WNW,287,0.0,0.0,47,0.00,,OVC002,0.00,VWS V14.01,2013-05-10 16:10:00,
2013-05-10 12:15:00,78.5,56.0,29.96,SW,236,1.0,4.0,46,0.00,,OVC002,0.00,VWS V14.01,2013-05-10 16:15:00,
2013-05-10 12:20:00,78.6,53.6,29.96,SW,236,0.0,0.0,42,0.00,,OVC002,0.00,VWS V14.01,2013-05-10 16:20:00,
2013-05-10 12:25:00,79.0,53.3,29.96,WSW,239,0.0,0.0,41,0.00,,OVC002,0.00,VWS V14.01,2013-05-10 16:25:00,
2013-05-10 12:30:00,79.6,56.4,29.95,SW,224,2.0,2.0,45,0.00,,OVC002,0.00,VWS V14.01,2013-05-10 16:30:00,
2013-05-10 12:35:00,80.3,53.8,29.95,SW,226,0.0,0.0,40,0.00,,OVC002,0.00,VWS V14.01,2013-05-10 16:35:00,
2013-05-10 12:40:00,80.3,52.4,29.95,SW,229,1.0,1.0,38,0.00,,OVC002,0.00,VWS V14.01,2013-05-10 16:40:00,
2013-05-10 12:45:00,80.3,53.8,29.95,SW,233,0.0,0.0,40,0.00,,OVC002,0.00,VWS V14.01,2013-05-10 16:45:00,
2013-05-10 12:50:00,79.9,54.1,29.95,WSW,240,1.0,2.0,41,0.00,,OVC002,0.00,VWS V14.01,2013-05-10 16:50:00,
2013-05-10 12:55:00,80.1,55.6,29.95,WSW,241,0.0,0.0,43,0.00,,OVC002,0.00,VWS V14.01,2013-05-10 16:55:00,
2013-05-10 13:00:00,79.4,53.7,29.95,NE,42,0.0,5.0,41,0.00,,OVC002,0.00,VWS V14.01,2013-05-10 17:00:00,
2013-05-10 13:05:00,79.2,53.5,29.95,NE,42,0.0,0.0,41,0.00,,OVC002,0.00,VWS V14.01,2013-05-10 17:05:00,
2013-05-10 13:10:00,79.2,52.8,29.95,NE,51,0.0,0.0,40,0.00,,OVC002,0.00,VWS V14.01,2013-05-10 17:10:00,
2013-05-10 13:15:00,79.9,52.8,29.94,SE,130,0.0,0.0,39,0.00,,OVC002,0.00,VWS V14.01,2013-05-10 17:15:00,
2013-05-10 13:20:00,80.3,53.8,29.94,SE,134,0.0,0.0,40,0.00,,OVC002,0.00,VWS V14.01,2013-05-10 17:20:00,
2013-05-10 13:25:00,80.1,52.9,29.94,SE,136,0.0,0.0,39,0.00,,OVC002,0.00,VWS V14.01,2013-05-10 17:25:00,
2013-05-10 13:30:00,80.3,56.4,29.94,SW,229,2.0,2.0,44,0.00,,OVC002,0.00,VWS V14.01,2013-05-10 17:30:00,
2013-05-10 13:35:00,80.7,53.5,29.94,SW,229,0.0,0.0,39,0.00,,OVC002,0.00,VWS V14.01,2013-05-10 17:35:00,
2013-05-10 13:40:00,81.2,53.9,29.94,SW,229,0.0,0.0,39,0.00,,OVC002,0.00,VWS V14.01,2013-05-10 17:40:00,
2013-05-10 13:45:00,81.4,55.5,29.94,SW,229,0.0,0.0,41,0.00,,OVC002,0.00,VWS V14.01,2013-05-10 17:45:00,
2013-05-10 13:50:00,80.7,53.5,29.94,NE,49,0.0,0.0,39,0.00,,OVC002,0.00,VWS V14.01,2013-05-10 17:50:00,
2013-05-10 13:55:00,81.1,51.7,29.94,NE,49,0.0,2.0,36,0.00,,OVC002,0.00,VWS V14.01,2013-05-10 17:55:00,
2013-05-10 14:00:00,80.7,53.5,29.94,NE,49,0.0,1.0,39,0.00,,OVC002,0.00,VWS V14.01,2013-05-10 18:00:00,
2013-05-10 14:05:00,79.9,54.8,29.94,NE,49,0.0,0.0,42,0.00,,OVC002,0.00,VWS V14.01,2013-05-10 18:05:00,
2013-05-10 14:10:00,79.9,54.1,29.94,NE,49,0.0,0.0,41,0.00,,OVC002,0.00,VWS V14.01,2013-05-10 18:10:00,
2013-05-10 14:15:00,80.3,53.1,29.94,NE,51,0.0,5.0,39,0.00,,OVC002,0.00,VWS V14.01,2013-05-10 18:15:00,
2013-05-10 14:20:00,80.9,53.7,29.94,ENE,59,0.0,0.0,39,0.00,,OVC002,0.00,VWS V14.01,2013-05-10 18:20:00,
2013-05-10 14:25:00,80.9,53.7,29.94,ENE,58,0.0,0.0,39,0.00,,OVC002,0.00,VWS V14.01,2013-05-10 18:25:00,
2013-05-10 14:30:00,81.6,56.3,29.94,SSW,202,0.0,5.0,42,0.00,,OVC002,0.00,VWS V14.01,2013-05-10 18:30:00,
2013-05-10 14:35:00,81.4,52.7,29.94,SW,217,0.0,5.0,37,0.00,,OVC002,0.00,VWS V14.01,2013-05-10 18:35:00,
2013-05-10 14:40:00,81.1,53.1,29.94,SW,217,0.0,0.0,38,0.00,,OVC002,0.00,VWS V14.01,2013-05-10 18:40:00,
2013-05-10 14:45:00,80.9,56.3,29.94,SW,217,0.0,1.0,43,0.00,,OVC002,0.00,VWS V14.01,2013-05-10 18:45:00,
2013-05-10 14:50:00,80.9,55.7,29.94,SW,223,0.0,4.0,42,0.00,,OVC002,0.00,VWS V14.01,2013-05-10 18:50:00,
2013-05-10 14:55:00,81.1,57.2,29.94,SW,222,0.0,3.0,44,0.00,,OVC002,0.00,VWS V14.01,2013-05-10 18:55:00,
2013-05-10 15:00:00,80.5,57.8,29.93,SW,222,0.0,1.0,46,0.00,,OVC002,0.00,VWS V14.01,2013-05-10 19:00:00,
2013-05-10 15:05:00,80.3,58.2,29.93,SW,222,1.0,1.0,47,0.00,,OVC002,0.00,VWS V14.01,2013-05-10 19:05:00,
2013-05-10 15:10:00,80.1,57.5,29.93,SW,224,0.0,5.0,46,0.00,,OVC002,0.00,VWS V14.01,2013-05-10 19:10:00,
2013-05-10 15:15:00,79.4,58.0,29.93,SW,223,0.0,3.0,48,0.00,,OVC002,0.00,VWS V14.01,2013-05-10 19:15:00,
2013-05-10 15:20:00,78.5,57.8,29.93,SW,219,1.0,5.0,49,0.00,,OVC002,0.00,VWS V14.01,2013-05-10 19:20:00,
2013-05-10 15:25:00,77.7,57.6,29.93,SW,223,0.0,2.0,50,0.00,,OVC002,0.00,VWS V14.01,2013-05-10 19:25:00,
2013-05-10 15:30:00,77.2,57.7,29.94,East,86,0.0,6.0,51,0.00,,OVC002,0.00,VWS V14.01,2013-05-10 19:30:00,
2013-05-10 15:35:00,76.8,57.3,29.94,SSW,213,0.0,3.0,51,0.00,,OVC002,0.00,VWS V14.01,2013-05-10 19:35:00,
2013-05-10 15:40:00,76.3,57.4,29.94,SW,215,0.0,1.0,52,0.00,,OVC002,0.00,VWS V14.01,2013-05-10 19:40:00,
2013-05-10 15:45:00,76.1,56.7,29.94,SW,230,0.0,2.0,51,0.00,,OVC002,0.00,VWS V14.01,2013-05-10 19:45:00,
2013-05-10 15:50:00,76.1,56.1,29.94,SW,230,0.0,1.0,50,0.00,,OVC002,0.00,VWS V14.01,2013-05-10 19:50:00,
2013-05-10 15:55:00,76.3,56.9,29.94,SW,230,0.0,1.0,51,0.00,,OVC002,0.00,VWS V14.01,2013-05-10 19:55:00,
2013-05-10 16:00:00,76.5,57.0,29.93,SW,230,0.0,1.0,51,0.00,,OVC002,0.00,VWS V14.01,2013-05-10 20:00:00,
2013-05-10 16:06:00,76.5,57.0,29.93,SE,124,0.0,0.0,51,0.00,,OVC002,0.00,VWS V14.01,2013-05-10 20:06:00,
2013-05-10 16:11:00,76.7,56.7,29.93,SE,124,0.0,2.0,50,0.00,,OVC002,0.00,VWS V14.01,2013-05-10 20:11:00,
2013-05-10 16:16:00,77.2,57.7,29.93,SE,124,1.0,1.0,51,0.00,,OVC002,0.00,VWS V14.01,2013-05-10 20:16:00,
2013-05-10 16:21:00,77.6,57.5,29.93,SE,134,0.0,0.0,50,0.00,,OVC002,0.00,VWS V14.01,2013-05-10 20:21:00,
2013-05-10 16:26:00,77.4,56.8,29.93,SE,134,0.0,1.0,49,0.00,,OVC002,0.00,VWS V14.01,2013-05-10 20:26:00,
2013-05-10 16:31:00,77.6,57.0,29.93,SE,131,0.0,0.0,49,0.00,,OVC002,0.00,VWS V14.01,2013-05-10 20:31:00,
2013-05-10 16:36:00,77.4,57.9,29.93,SE,130,0.0,2.0,51,0.00,,OVC002,0.00,VWS V14.01,2013-05-10 20:36:00,
2013-05-10 16:41:00,77.2,56.6,29.93,SE,130,0.0,0.0,49,0.00,,OVC002,0.00,VWS V14.01,2013-05-10 20:41:00,
2013-05-10 16:46:00,77.0,57.0,29.92,SE,128,0.0,0.0,50,0.00,,OVC002,0.00,VWS V14.01,2013-05-10 20:46:00,
2013-05-10 16:51:00,77.2,57.1,29.92,SE,127,0.0,0.0,50,0.00,,OVC002,0.00,VWS V14.01,2013-05-10 20:51:00,
2013-05-10 16:56:00,77.4,57.3,29.92,SE,124,0.0,0.0,50,0.00,,OVC002,0.00,VWS V14.01,2013-05-10 20:56:00,
2013-05-10 17:01:00,77.6,57.5,29.92,SE,124,0.0,0.0,50,0.00,,OVC002,0.00,VWS V14.01,2013-05-10 21:01:00,
2013-05-10 17:06:00,77.6,57.0,29.92,ESE,116,0.0,0.0,49,0.00,,OVC002,0.00,VWS V14.01,2013-05-10 21:06:00,
2013-05-10 17:11:00,77.6,57.5,29.92,ESE,119,0.0,0.0,50,0.00,,OVC002,0.00,VWS V14.01,2013-05-10 21:11:00,
2013-05-10 17:16:00,77.6,57.5,29.92,ESE,119,0.0,0.0,50,0.00,,OVC002,0.00,VWS V14.01,2013-05-10 21:16:00,
2013-05-10 17:21:00,77.4,57.9,29.92,ESE,119,0.0,0.0,51,0.00,,OVC002,0.00,VWS V14.01,2013-05-10 21:21:00,
2013-05-10 17:26:00,77.2,57.7,29.92,ESE,119,0.0,0.0,51,0.00,,OVC002,0.00,VWS V14.01,2013-05-10 21:26:00,
2013-05-10 17:31:00,77.2,58.8,29.92,ESE,119,0.0,2.0,53,0.00,,OVC002,0.00,VWS V14.01,2013-05-10 21:31:00,
2013-05-10 17:36:00,77.2,57.1,29.92,SE,130,0.0,1.0,50,0.00,,OVC002,0.00,VWS V14.01,2013-05-10 21:36:00,
2013-05-10 17:41:00,77.2,56.0,29.92,SW,230,1.0,1.0,48,0.00,,OVC002,0.00,VWS V14.01,2013-05-10 21:41:00,
2013-05-10 17:46:00,77.2,56.0,29.92,WSW,256,0.0,1.0,48,0.00,,OVC002,0.00,VWS V14.01,2013-05-10 21:46:00,
2013-05-10 17:51:00,76.8,55.1,29.92,WSW,254,0.0,2.0,47,0.00,,OVC002,0.00,VWS V14.01,2013-05-10 21:51:00,
2013-05-10 17:56:00,76.7,55.0,29.92,SSW,196,0.0,1.0,47,0.00,,OVC002,0.00,VWS V14.01,2013-05-10 21:56:00,
2013-05-10 17:58:00,76.5,54.2,29.92,SSW,193,0.0,6.0,46,0.00,,OVC002,0.00,VWS V14.01,2013-05-10 21:58:00,
2013-05-10 18:03:00,76.3,54.6,29.92,WSW,247,0.0,9.0,47,0.00,,OVC002,0.00,VWS V14.01,2013-05-10 22:03:00,
2013-05-10 18:08:00,76.3,54.0,29.92,South,186,2.0,5.0,46,0.00,,OVC002,0.00,VWS V14.01,2013-05-10 22:08:00,
2013-05-10 18:13:00,76.1,55.0,29.92,SSE,154,2.0,6.0,48,0.00,,OVC002,0.00,VWS V14.01,2013-05-10 22:13:00,
2013-05-10 18:18:00,75.8,53.0,29.92,WSW,250,0.0,7.0,45,0.00,,OVC002,0.00,VWS V14.01,2013-05-10 22:18:00,
2013-05-10 18:23:00,75.6,53.4,29.92,WSW,240,1.0,12.0,46,0.00,,OVC002,0.00,VWS V14.01,2013-05-10 22:23:00,
2013-05-10 18:28:00,75.3,52.5,29.92,WSW,250,2.0,7.0,45,0.00,,OVC002,0.00,VWS V14.01,2013-05-10 22:28:00,
2013-05-10 18:33:00,75.1,53.5,29.92,WNW,288,0.0,2.0,47,0.00,,OVC002,0.00,VWS V14.01,2013-05-10 22:33:00,
2013-05-10 18:38:00,74.7,53.2,29.92,SSW,200,6.0,10.0,47,0.00,,OVC002,0.00,VWS V14.01,2013-05-10 22:38:00,
2013-05-10 18:43:00,74.6,53.1,29.92,WSW,248,6.0,8.0,47,0.00,,OVC002,0.00,VWS V14.01,2013-05-10 22:43:00,
2013-05-10 18:48:00,74.4,53.5,29.92,WSW,246,0.0,6.0,48,0.00,,OVC002,0.00,VWS V14.01,2013-05-10 22:48:00,
2013-05-10 18:53:00,74.2,54.9,29.92,WSW,258,10.0,10.0,51,0.00,,OVC002,0.00,VWS V14.01,2013-05-10 22:53:00,
2013-05-10 18:58:00,73.9,53.6,29.92,WSW,256,0.0,4.0,49,0.00,,OVC002,0.00,VWS V14.01,2013-05-10 22:58:00,
2013-05-10 19:03:00,73.7,54.5,29.94,WSW,251,0.0,5.0,51,0.00,,OVC002,0.00,VWS V14.01,2013-05-10 23:03:00,
2013-05-10 19:08:00,73.3,54.6,29.94,SW,226,0.0,7.0,52,0.00,,OVC002,0.00,VWS V14.01,2013-05-10 23:08:00,
2013-05-10 19:13:00,73.0,54.9,29.94,WSW,251,0.0,2.0,53,0.00,,OVC002,0.00,VWS V14.01,2013-05-10 23:13:00,
2013-05-10 19:18:00,72.8,55.2,29.94,WSW,251,3.0,10.0,54,0.00,,OVC002,0.00,VWS V14.01,2013-05-10 23:18:00,
2013-05-10 19:23:00,72.5,54.9,29.94,WSW,251,0.0,5.0,54,0.00,,OVC002,0.00,VWS V14.01,2013-05-10 23:23:00,
2013-05-10 19:28:00,72.3,54.7,29.94,WSW,251,0.0,5.0,54,0.00,,OVC002,0.00,VWS V14.01,2013-05-10 23:28:00,
2013-05-10 19:33:00,71.8,55.3,29.95,South,188,7.0,11.0,56,0.00,,OVC002,0.00,VWS V14.01,2013-05-10 23:33:00,
2013-05-10 19:38:00,71.6,54.6,29.95,SW,229,2.0,5.0,55,0.00,,OVC002,0.00,VWS V14.01,2013-05-10 23:38:00,
2013-05-10 19:43:00,71.3,55.3,29.95,SW,226,3.0,3.0,57,0.00,,OVC002,0.00,VWS V14.01,2013-05-10 23:43:00,
2013-05-10 19:48:00,71.1,55.1,29.95,SW,236,1.0,6.0,57,0.00,,OVC002,0.00,VWS V14.01,2013-05-10 23:48:00,
2013-05-10 19:53:00,70.8,55.3,29.95,SW,234,0.0,6.0,58,0.00,,OVC002,0.00,VWS V14.01,2013-05-10 23:53:00,
2013-05-10 19:58:00,70.4,54.9,29.95,SW,236,0.0,2.0,58,0.00,,OVC002,0.00,VWS V14.01,2013-05-10 23:58:00,
2013-05-10 20:03:00,70.1,55.6,29.95,SW,236,0.0,0.0,60,0.00,,OVC002,0.00,VWS V14.01,2013-05-11 00:03:00,
2013-05-10 20:08:00,69.8,55.8,29.95,SW,236,0.0,2.0,61,0.00,,OVC002,0.00,VWS V14.01,2013-05-11 00:08:00,
2013-05-10 20:13:00,69.4,55.8,29.95,SW,236,0.0,0.0,62,0.00,,OVC002,0.00,VWS V14.01,2013-05-11 00:13:00,
2013-05-10 20:18:00,69.3,55.7,29.95,SW,236,0.0,0.0,62,0.00,,OVC002,0.00,VWS V14.01,2013-05-11 00:18:00,
2013-05-10 20:23:00,68.9,55.8,29.95,SW,236,0.0,0.0,63,0.00,,OVC002,0.00,VWS V14.01,2013-05-11 00:23:00,
2013-05-10 20:28:00,68.8,55.7,29.95,SW,236,0.0,0.0,63,0.00,,OVC002,0.00,VWS V14.01,2013-05-11 00:28:00,
2013-05-10 20:33:00,68.4,55.8,29.95,SW,236,0.0,0.0,64,0.00,,OVC002,0.00,VWS V14.01,2013-05-11 00:33:00,
2013-05-10 20:38:00,68.3,56.1,29.95,SW,236,0.0,0.0,65,0.00,,OVC002,0.00,VWS V14.01,2013-05-11 00:38:00,
2013-05-10 20:43:00,68.1,55.9,29.95,SW,236,0.0,0.0,65,0.00,,OVC002,0.00,VWS V14.01,2013-05-11 00:43:00,
2013-05-10 20:48:00,67.8,56.0,29.95,SW,236,0.0,0.0,66,0.00,,OVC002,0.00,VWS V14.01,2013-05-11 00:48:00,
2013-05-10 20:53:00,67.6,55.8,29.95,SW,236,0.0,0.0,66,0.00,,OVC002,0.00,VWS V14.01,2013-05-11 00:53:00,
2013-05-10 20:58:00,67.3,56.0,29.95,SW,236,0.0,0.0,67,0.00,,OVC002,0.00,VWS V14.01,2013-05-11 00:58:00,
2013-05-10 21:03:00,67.1,56.2,29.96,SW,236,0.0,0.0,68,0.00,,OVC002,0.00,VWS V14.01,2013-05-11 01:03:00,
2013-05-10 21:08:00,66.6,56.1,29.96,SW,236,0.0,3.0,69,0.00,,OVC002,0.00,VWS V14.01,2013-05-11 01:08:00,
2013-05-10 21:13:00,66.4,55.5,29.96,SW,236,0.0,0.0,68,0.00,,OVC002,0.00,VWS V14.01,2013-05-11 01:13:00,
2013-05-10 21:18:00,66.3,55.4,29.96,SW,236,0.0,0.0,68,0.00,,OVC002,0.00,VWS V14.01,2013-05-11 01:18:00,
2013-05-10 21:23:00,66.1,55.7,29.96,SW,236,0.0,0.0,69,0.00,,OVC002,0.00,VWS V14.01,2013-05-11 01:23:00,
2013-05-10 21:28:00,66.0,55.5,29.96,SW,236,1.0,1.0,69,0.00,,OVC002,0.00,VWS V14.01,2013-05-11 01:28:00,
2013-05-10 21:33:00,65.6,55.6,29.96,SW,236,0.0,0.0,70,0.00,,OVC002,0.00,VWS V14.01,2013-05-11 01:33:00,
2013-05-10 21:38:00,65.5,55.1,29.96,SW,236,0.0,2.0,69,0.00,,OVC002,0.00,VWS V14.01,2013-05-11 01:38:00,
2013-05-10 21:43:00,65.5,55.5,29.96,SW,236,0.0,0.0,70,0.00,,OVC002,0.00,VWS V14.01,2013-05-11 01:43:00,
2013-05-10 21:48:00,65.3,55.7,29.96,SW,236,0.0,0.0,71,0.00,,OVC002,0.00,VWS V14.01,2013-05-11 01:48:00,
2013-05-10 21:53:00,65.2,55.6,29.96,SW,236,0.0,0.0,71,0.00,,OVC002,0.00,VWS V14.01,2013-05-11 01:53:00,
2013-05-10 21:58:00,65.2,55.2,29.96,WSW,237,1.0,4.0,70,0.00,,OVC002,0.00,VWS V14.01,2013-05-11 01:58:00,
2013-05-10 22:03:00,65.0,55.4,29.96,WSW,237,0.0,1.0,71,0.00,,OVC002,0.00,VWS V14.01,2013-05-11 02:03:00,
2013-05-10 22:08:00,65.0,55.4,29.96,WSW,237,0.0,2.0,71,0.00,,OVC002,0.00,VWS V14.01,2013-05-11 02:08:00,
2013-05-10 22:13:00,65.0,55.4,29.96,WSW,237,0.0,0.0,71,0.00,,OVC002,0.00,VWS V14.01,2013-05-11 02:13:00,
2013-05-10 22:18:00,64.8,55.6,29.96,WSW,237,0.0,0.0,72,0.00,,OVC002,0.00,VWS V14.01,2013-05-11 02:18:00,
2013-05-10 22:23:00,64.8,55.6,29.96,WSW,237,0.0,0.0,72,0.00,,OVC002,0.00,VWS V14.01,2013-05-11 02:23:00,
2013-05-10 22:28:00,64.7,55.5,29.96,WSW,237,0.0,0.0,72,0.00,,OVC002,0.00,VWS V14.01,2013-05-11 02:28:00,
2013-05-10 22:33:00,64.7,55.5,29.95,WSW,237,0.0,0.0,72,0.00,,OVC002,0.00,VWS V14.01,2013-05-11 02:33:00,
2013-05-10 22:38:00,64.5,55.3,29.95,WSW,237,0.0,0.0,72,0.00,,OVC002,0.00,VWS V14.01,2013-05-11 02:38:00,
2013-05-10 22:43:00,64.5,55.3,29.95,WSW,237,0.0,0.0,72,0.00,,OVC002,0.00,VWS V14.01,2013-05-11 02:43:00,
2013-05-10 22:48:00,64.3,55.1,29.95,WSW,237,0.0,0.0,72,0.00,,OVC002,0.00,VWS V14.01,2013-05-11 02:48:00,
2013-05-10 22:53:00,64.2,55.4,29.95,WSW,237,0.0,0.0,73,0.00,,OVC002,0.00,VWS V14.01,2013-05-11 02:53:00,
2013-05-10 22:58:00,64.2,55.4,29.95,WSW,237,0.0,0.0,73,0.00,,OVC002,0.00,VWS V14.01,2013-05-11 02:58:00,
2013-05-10 23:03:00,64.0,55.6,29.95,WSW,237,0.0,0.0,74,0.00,,OVC002,0.00,VWS V14.01,2013-05-11 03:03:00,
2013-05-10 23:08:00,63.9,55.5,29.95,WSW,237,0.0,0.0,74,0.00,,OVC002,0.00,VWS V14.01,2013-05-11 03:08:00,
2013-05-10 23:13:00,63.7,55.6,29.95,WSW,237,0.0,0.0,75,0.00,,OVC002,0.00,VWS V14.01,2013-05-11 03:13:00,
2013-05-10 23:18:00,63.5,55.4,29.95,WSW,237,0.0,0.0,75,0.00,,OVC002,0.00,VWS V14.01,2013-05-11 03:18:00,
2013-05-10 23:23:00,63.5,55.4,29.95,WSW,237,0.0,0.0,75,0.00,,OVC002,0.00,VWS V14.01,2013-05-11 03:23:00,
2013-05-10 23:28:00,63.4,55.7,29.95,WSW,237,0.0,0.0,76,0.00,,OVC002,0.00,VWS V14.01,2013-05-11 03:28:00,
2013-05-10 23:33:00,63.2,55.5,29.95,WSW,237,0.0,0.0,76,0.00,,OVC002,0.00,VWS V14.01,2013-05-11 03:33:00,
2013-05-10 23:38:00,63.1,55.4,29.95,WSW,237,0.0,0.0,76,0.00,,OVC002,0.00,VWS V14.01,2013-05-11 03:38:00,
2013-05-10 23:43:00,62.9,55.6,29.95,WSW,237,0.0,0.0,77,0.00,,OVC002,0.00,VWS V14.01,2013-05-11 03:43:00,
2013-05-10 23:48:00,62.7,55.8,29.95,WSW,237,0.0,0.0,78,0.00,,OVC002,0.00,VWS V14.01,2013-05-11 03:48:00,
2013-05-10 23:53:00,62.4,55.8,29.95,WSW,237,0.0,0.0,79,0.00,,OVC002,0.00,VWS V14.01,2013-05-11 03:53:00,
2013-05-10 23:58:00,62.3,55.7,29.95,WSW,237,0.0,0.0,79,0.00,,OVC002,0.00,VWS V14.01,2013-05-11 03:58:00,